Meteo pe oră la Bolshie Lzi

Astăzi, 18 Mai, Marţi

Timp Temperatura Precipitaţii Vânt Presiune Umiditate
00:00 +15°C° 0.4 mm 1 m/s 747 mmHg 98%
01:00 +15°C° 0.4 mm 1 m/s 747 mmHg 98%
02:00 +14°C° 0.4 mm 1 m/s 747 mmHg 98%
03:00 +15°C° 0.4 mm 1 m/s 747 mmHg 98%
04:00 +15°C° 0.4 mm 1 m/s 747 mmHg 98%
05:00 +15°C° 0.4 mm 1 m/s 746 mmHg 99%
06:00 +16°C° 0.6 mm 1 m/s 746 mmHg 98%
07:00 +17°C° 0.6 mm 2 m/s 746 mmHg 97%
08:00 +17°C° 0.6 mm 2 m/s 746 mmHg 96%
09:00 +18°C° 0.5 mm 2 m/s 746 mmHg 94%
10:00 +19°C° 0.5 mm 2 m/s 746 mmHg 93%
11:00 +20°C° 0.5 mm 2 m/s 746 mmHg 92%
12:00 +21°C° 0.7 mm 2 m/s 746 mmHg 89%
13:00 +21°C° 0.7 mm 2 m/s 746 mmHg 86%
14:00 +23°C° 0.7 mm 2 m/s 746 mmHg 84%
15:00 +23°C° 0.7 mm 2 m/s 746 mmHg 85%
16:00 +23°C° 0.7 mm 2 m/s 746 mmHg 86%
17:00 +23°C° 0.7 mm 2 m/s 746 mmHg 87%
18:00 +20°C° 2.1 mm 2 m/s 746 mmHg 90%
19:00 +19°C° 2.1 mm 1 m/s 746 mmHg 93%
20:00 +18°C° 2.1 mm 1 m/s 746 mmHg 97%
21:00 +16°C° 0.4 mm 1 m/s 746 mmHg 97%
22:00 +16°C° 0.4 mm 1 m/s 746 mmHg 97%
23:00 +15°C° 0.4 mm 1 m/s 746 mmHg 98%

Mâine, 19 Mai, Miercuri

Timp Temperatura Precipitaţii Vânt Presiune Umiditate
00:00 +15°C° 0 mm 1 m/s 745 mmHg 98%
01:00 +15°C° 0 mm 2 m/s 745 mmHg 98%
02:00 +15°C° 0 mm 2 m/s 745 mmHg 98%
03:00 +16°C° 0.2 mm 2 m/s 744 mmHg 97%
04:00 +16°C° 0.2 mm 3 m/s 744 mmHg 96%
05:00 +15°C° 0.2 mm 4 m/s 744 mmHg 96%
06:00 +15°C° 0 mm 4 m/s 744 mmHg 94%
07:00 +17°C° 0 mm 4 m/s 744 mmHg 93%
08:00 +16°C° 0 mm 5 m/s 744 mmHg 92%
09:00 +17°C° 0.2 mm 5 m/s 745 mmHg 88%
10:00 +19°C° 0.2 mm 5 m/s 745 mmHg 84%
11:00 +20°C° 0.2 mm 5 m/s 745 mmHg 79%
12:00 +20°C° 0.4 mm 5 m/s 745 mmHg 77%
13:00 +20°C° 0.4 mm 4 m/s 745 mmHg 75%
14:00 +20°C° 0.4 mm 4 m/s 745 mmHg 73%
15:00 +19°C° 0.5 mm 3 m/s 746 mmHg 78%
16:00 +19°C° 0.5 mm 3 m/s 746 mmHg 83%
17:00 +18°C° 0.5 mm 3 m/s 746 mmHg 88%
18:00 +17°C° 0.1 mm 3 m/s 746 mmHg 89%
19:00 +14°C° 0.1 mm 3 m/s 747 mmHg 91%
20:00 +14°C° 0.1 mm 2 m/s 747 mmHg 92%
21:00 +13°C° 0 mm 2 m/s 748 mmHg 92%
22:00 +13°C° 0 mm 2 m/s 748 mmHg 93%
23:00 +12°C° 0 mm 2 m/s 748 mmHg 93%

Poimâine, 20 Mai, Joi

Timp Temperatura Precipitaţii Vânt Presiune Umiditate
00:00 +12°C° 0 mm 2 m/s 748 mmHg 93%
01:00 +12°C° 0 mm 2 m/s 749 mmHg 93%
02:00 +12°C° 0 mm 2 m/s 749 mmHg 92%
03:00 +10°C° 0 mm 2 m/s 749 mmHg 92%
04:00 +10°C° 0 mm 2 m/s 749 mmHg 92%
05:00 +10°C° 0 mm 2 m/s 749 mmHg 92%
06:00 +12°C° 0 mm 2 m/s 749 mmHg 89%
07:00 +11°C° 0 mm 3 m/s 749 mmHg 87%
08:00 +12°C° 0 mm 3 m/s 749 mmHg 85%
09:00 +12°C° 0.1 mm 3 m/s 749 mmHg 85%
10:00 +12°C° 0.1 mm 3 m/s 749 mmHg 86%
11:00 +12°C° 0.1 mm 4 m/s 748 mmHg 86%
12:00 +12°C° 0.1 mm 4 m/s 748 mmHg 87%
13:00 +12°C° 0.1 mm 4 m/s 748 mmHg 87%
14:00 +12°C° 0.1 mm 5 m/s 747 mmHg 87%
15:00 +10°C° 0.6 mm 5 m/s 747 mmHg 89%
16:00 +10°C° 0.6 mm 5 m/s 746 mmHg 91%
17:00 +9°C° 0.6 mm 6 m/s 746 mmHg 93%
18:00 +9°C° 2.6 mm 6 m/s 746 mmHg 94%
19:00 +9°C° 2.6 mm 5 m/s 746 mmHg 95%
20:00 +8°C° 2.6 mm 5 m/s 746 mmHg 96%
21:00 +8°C° 0.7 mm 5 m/s 746 mmHg 96%
22:00 +8°C° 0.7 mm 5 m/s 746 mmHg 96%
23:00 +8°C° 0.7 mm 6 m/s 746 mmHg 96%

21 Mai, Vineri

Timp Temperatura Precipitaţii Vânt Presiune Umiditate
00:00 +8°C° 0.6 mm 5 m/s 746 mmHg 96%
01:00 +8°C° 0.6 mm 5 m/s 746 mmHg 96%
02:00 +8°C° 0.6 mm 5 m/s 746 mmHg 97%
03:00 +7°C° 1.3 mm 5 m/s 746 mmHg 97%
04:00 +7°C° 1.3 mm 5 m/s 747 mmHg 97%
05:00 +7°C° 1.3 mm 5 m/s 747 mmHg 97%
06:00 +7°C° 0.9 mm 4 m/s 747 mmHg 96%
07:00 +7°C° 0.9 mm 4 m/s 748 mmHg 95%
08:00 +7°C° 0.9 mm 4 m/s 748 mmHg 94%
09:00 +8°C° 0 mm 4 m/s 748 mmHg 84%
10:00 +11°C° 0 mm 4 m/s 749 mmHg 75%
11:00 +12°C° 0 mm 4 m/s 749 mmHg 65%
12:00 +14°C° 0 mm 4 m/s 749 mmHg 57%
13:00 +15°C° 0 mm 4 m/s 749 mmHg 49%
14:00 +17°C° 0 mm 5 m/s 749 mmHg 41%
15:00 +17°C° 0 mm 4 m/s 750 mmHg 47%
16:00 +15°C° 0 mm 4 m/s 750 mmHg 53%
17:00 +14°C° 0 mm 4 m/s 751 mmHg 60%
18:00 +12°C° 0 mm 3 m/s 751 mmHg 65%
19:00 +11°C° 0 mm 3 m/s 751 mmHg 70%
20:00 +9°C° 0 mm 2 m/s 752 mmHg 75%
21:00 +8°C° 0 mm 2 m/s 752 mmHg 78%
22:00 +7°C° 0 mm 2 m/s 753 mmHg 82%
23:00 +6°C° 0 mm 2 m/s 753 mmHg 86%

22 Mai, Sâmbătă

Timp Temperatura Precipitaţii Vânt Presiune Umiditate
00:00 +6°C° 0 mm 2 m/s 753 mmHg 88%
01:00 +5°C° 0 mm 2 m/s 754 mmHg 90%
02:00 +5°C° 0 mm 2 m/s 754 mmHg 92%
03:00 +5°C° 0 mm 2 m/s 754 mmHg 89%
04:00 +5°C° 0 mm 2 m/s 754 mmHg 86%
05:00 +5°C° 0 mm 2 m/s 755 mmHg 83%
06:00 +7°C° 0 mm 2 m/s 755 mmHg 77%
07:00 +9°C° 0 mm 3 m/s 755 mmHg 70%
08:00 +11°C° 0 mm 3 m/s 755 mmHg 64%
09:00 +12°C° 0 mm 3 m/s 755 mmHg 63%
10:00 +13°C° 0 mm 4 m/s 755 mmHg 61%
11:00 +14°C° 0 mm 4 m/s 755 mmHg 60%
12:00 +15°C° 0 mm 4 m/s 755 mmHg 58%
13:00 +17°C° 0 mm 4 m/s 755 mmHg 55%
14:00 +17°C° 0 mm 4 m/s 755 mmHg 53%
15:00 +18°C° 0 mm 4 m/s 754 mmHg 54%
16:00 +18°C° 0 mm 4 m/s 754 mmHg 55%
17:00 +18°C° 0 mm 4 m/s 754 mmHg 55%
18:00 +17°C° 0 mm 4 m/s 754 mmHg 61%
19:00 +14°C° 0 mm 4 m/s 754 mmHg 66%
20:00 +13°C° 0 mm 3 m/s 754 mmHg 71%
21:00 +12°C° 0 mm 3 m/s 753 mmHg 74%
22:00 +11°C° 0 mm 3 m/s 753 mmHg 78%
23:00 +10°C° 0 mm 3 m/s 753 mmHg 81%

23 Mai, Duminică

Timp Temperatura Precipitaţii Vânt Presiune Umiditate
00:00 +10°C° 0 mm 3 m/s 753 mmHg 81%
01:00 +10°C° 0 mm 3 m/s 753 mmHg 81%
02:00 +10°C° 0 mm 3 m/s 752 mmHg 81%
03:00 +10°C° 0 mm 3 m/s 752 mmHg 82%
04:00 +10°C° 0 mm 3 m/s 752 mmHg 82%
05:00 +10°C° 0 mm 3 m/s 752 mmHg 83%
06:00 +11°C° 0.1 mm 3 m/s 752 mmHg 83%
07:00 +12°C° 0.1 mm 3 m/s 751 mmHg 84%
08:00 +12°C° 0.1 mm 3 m/s 751 mmHg 85%
09:00 +13°C° 0.2 mm 3 m/s 751 mmHg 85%
10:00 +13°C° 0.2 mm 3 m/s 751 mmHg 85%
11:00 +13°C° 0.2 mm 3 m/s 750 mmHg 86%
12:00 +14°C° 0.3 mm 3 m/s 750 mmHg 83%
13:00 +16°C° 0.3 mm 3 m/s 749 mmHg 81%
14:00 +16°C° 0.3 mm 3 m/s 748 mmHg 78%
15:00 +14°C° 1.2 mm 3 m/s 748 mmHg 84%
16:00 +14°C° 1.2 mm 2 m/s 748 mmHg 91%
17:00 +13°C° 1.2 mm 2 m/s 747 mmHg 97%
18:00 +11°C° 1.8 mm 3 m/s 747 mmHg 97%
19:00 +11°C° 1.8 mm 3 m/s 747 mmHg 97%
20:00 +10°C° 1.8 mm 4 m/s 747 mmHg 97%
21:00 +10°C° 0.7 mm 4 m/s 747 mmHg 96%
22:00 +8°C° 0.7 mm 4 m/s 748 mmHg 96%
23:00 +8°C° 0.7 mm 4 m/s 749 mmHg 95%
Arată mai mult

Formular de consimțământ

Meteoprog și furnizorii noștri de servicii pot stoca și accesa date personale, precum cookies, identificatori de dispozitiv sau alte tehnologii similare pe dispozitivul dumneavoastră și procesa astfel de date pentru a personaliza conținutul și reclamele, dar și pentru a oferi caracteristici de social media și pentru a analiza traficul.

  • Stocarea și/sau accesarea informațiilor pe dispozitivul dumneavoastră

    Cookies, identificatori de dispozitiv sau alte informații pot fi stocate sau accesate pe dispozitiv în scopurile indicate mai sus.

  • Reclame și conținut personalizat, evaluarea reclamelor și a conținutului, informații despre audiențe și dezvoltarea produselor

    Reclamele și conținutul pot fi personalizate pe baza unui profil. Pot fi adăugate date suplimentare pentru a personaliza mai bine reclamele și conținutul. Performanța reclamelor și conținutului poate fi măsurată. Pot fi obținute informații despre utilizatorii care au văzut reclamele și conținutul. Aceste date pot fi utilizate pentru a dezvolta sau îmbunătăți experiența utilizatorilor, sistemele și software-ul.

Dând clic pe ‘Sunt de acord’, permiteți utilizarea cookie-urilor menționate, a identificatorilor de dispozitiv, balizelor web sau altor tehnologii similare. Setările pot fi modificate din browser-ul dispozitivului dumneavoastră.

În anumite scopuri, interesele legitime pot prima asupra consimțământului. Puteți citi mai multe informații în acest sens în Politica privind Confidențialitatea Datelor și Cookie.